Вернуться в каталог

GREGOIRE

АктивенНаукаSSO
NORAD 56946·PAYLOAD·🇧🇪 Belgium

Запущен Jun 12, 2023 с Vandenberg Space Force Base

Loading…

Ближайшие Пролёты (ближайшие 24 часа)

TLE

СвежийSource: Space-Track

Эпоха: Sep 14, 2026, 08:25 UTC

1 56946U 23084Q   26257.35074076  .00006915  00000-0  17739-3 0  9992
2 56946  97.6369  44.8583 0005908  11.1192 349.0183 15.39670991181425

Отслеживайте GREGOIRE в реальном времени с AllMySat

Download on the App Store